Hailey, ID

7:36 PM MDT on April 29, 2017 (GMT -0600)
Friedman Memorial

Weather History for KSUN - September, 2012

Change the Weather History Date:

Saturday, September 15, 2012

  Actual Average Record
Temperature  
Mean Temperature 63 °F -  
Max Temperature 80 °F 70 °F 87 °F (2000)
Min Temperature 46 °F 42 °F 33 °F (1996)
Degree Days  
Heating Degree Days 2    
Growing Degree Days 13 (Base 50)    
Moisture  
Dew Point 24 °F    
Average Humidity 27    
Maximum Humidity 38    
Minimum Humidity 17    
Precipitation  
Precipitation 0.00 in - - ()
Sea Level Pressure  
Sea Level Pressure 30.24 in    
Wind  
Wind Speed 10 mph (WNW)    
Max Wind Speed 13 mph    
Max Gust Speed 16 mph    
Visibility 10 miles    
Events      
Averages and records for this station are not official NWS values.
T = Trace of Precipitation, MM = Missing Value Source: NWS Daily Summary

Daily Weather History Graph

Daily Weather History Graph

Search for Another Location

Airport or City:

Trip Planner

Search our weather history database for the weather conditions in past years. The results will help you decide how hot, cold, wet, or windy it might be!

Date:

Astronomy

Sep. 15, 2012 Rise Set
Actual Time 7:17 AM MDT 7:46 PM MDT
Civil Twilight 6:48 AM MDT 8:14 PM MDT
Nautical Twilight 6:14 AM MDT 8:48 PM MDT
Astronomical Twilight 5:39 AM MDT 9:23 PM MDT
Moon 6:53 AM MDT (9/15) 7:16 PM MDT (9/15)
Length of Visible Light 13h 26m
Length of Day
12h 29m
Waning Crescent, 0% of the Moon is Illuminated
Sep 15
Waning Crescent
Sep 15
New
Sep 22
First Quarter
Sep 29
Full
Oct 8
Last Quarter

Hourly Weather History & Observations

Time (MDT) Temp. Windchill Dew Point Humidity Pressure Visibility Wind Dir Wind Speed Gust Speed Precip Events Conditions
12:15 AM 57.2 °F - 23.0 °F 27% 30.27 in 10.0 mi NW 6.9 mph - N/A   Clear
12:35 AM 55.4 °F - 23.0 °F 29% 30.27 in 10.0 mi NW 8.1 mph - N/A   Clear
12:55 AM 55.4 °F - 23.0 °F 29% 30.27 in 10.0 mi WNW 10.4 mph - N/A   Clear
1:15 AM 53.6 °F - 23.0 °F 30% 30.27 in 10.0 mi NW 10.4 mph 16.1 mph N/A   Clear
1:35 AM 53.6 °F - 21.2 °F 28% 30.27 in 10.0 mi NW 10.4 mph - N/A   Clear
1:55 AM 53.6 °F - 21.2 °F 28% 30.27 in 10.0 mi NW 10.4 mph - N/A   Clear
2:15 AM 53.6 °F - 21.2 °F 28% 30.27 in 10.0 mi NW 10.4 mph - N/A   Clear
2:35 AM 51.8 °F - 21.2 °F 30% 30.27 in 10.0 mi NW 11.5 mph - N/A   Clear
2:55 AM 51.8 °F - 19.4 °F 28% 30.26 in 10.0 mi NW 11.5 mph - N/A   Clear
3:15 AM 51.8 °F - 19.4 °F 28% 30.26 in 10.0 mi NW 11.5 mph - N/A   Clear
3:35 AM 50.0 °F - 19.4 °F 30% 30.26 in 10.0 mi NW 10.4 mph - N/A   Clear
3:55 AM 50.0 °F - 19.4 °F 30% 30.26 in 10.0 mi NW 12.7 mph - N/A   Clear
4:15 AM 50.0 °F - 19.4 °F 30% 30.26 in 10.0 mi NW 11.5 mph - N/A   Clear
4:35 AM 50.0 °F - 19.4 °F 30% 30.26 in 10.0 mi NW 11.5 mph 16.1 mph N/A   Clear
4:55 AM 48.2 °F - 19.4 °F 32% 30.25 in 10.0 mi NW 10.4 mph - N/A   Clear
5:15 AM 48.2 °F - 19.4 °F 32% 30.26 in 10.0 mi NW 12.7 mph - N/A   Clear
5:35 AM 48.2 °F - 19.4 °F 32% 30.26 in 10.0 mi NW 11.5 mph - N/A   Clear
5:55 AM 48.2 °F - 19.4 °F 32% 30.26 in 10.0 mi NW 11.5 mph - N/A   Clear
6:15 AM 46.4 °F 41.1 °F 17.6 °F 32% 30.26 in 10.0 mi NW 11.5 mph - N/A   Clear
6:35 AM 46.4 °F 40.7 °F 19.4 °F 34% 30.26 in 10.0 mi NW 12.7 mph - N/A   Clear
6:50 AM 48.2 °F - 17.6 °F 30% 30.27 in 10.0 mi WNW 10.4 mph - N/A   Partly Cloudy
6:55 AM 46.4 °F 41.1 °F 17.6 °F 32% 30.27 in 10.0 mi NW 11.5 mph - N/A   Clear
7:55 AM 46.4 °F 40.7 °F 17.6 °F 32% 30.28 in 10.0 mi WNW 12.7 mph - N/A   Partly Cloudy
8:50 AM 51.8 °F - 17.6 °F 26% 30.28 in 10.0 mi NW 11.5 mph - N/A   Partly Cloudy
9:47 AM 57.2 °F - 19.4 °F 23% 30.27 in 10.0 mi WNW 12.7 mph - N/A   Partly Cloudy
10:47 AM 64.4 °F - 21.2 °F 19% 30.28 in 10.0 mi Calm Calm - N/A   Partly Cloudy
11:47 AM 71.6 °F - 26.6 °F 19% 30.27 in 10.0 mi SE 9.2 mph - N/A   Partly Cloudy
12:55 PM 78.8 °F - 30.2 °F 17% 30.25 in 10.0 mi ESE 11.5 mph - N/A   Scattered Clouds
1:48 PM 78.8 °F - 33.8 °F 20% 30.25 in 10.0 mi SSE 5.8 mph - N/A   Scattered Clouds
2:47 PM 80.6 °F - 32.0 °F 17% 30.23 in 10.0 mi NW 3.5 mph - N/A   Scattered Clouds
3:47 PM 80.6 °F - 33.8 °F 18% 30.02 in 10.0 mi SSW 5.8 mph - N/A   Scattered Clouds
4:55 PM 78.8 °F - 32.0 °F 18% 30.20 in 10.0 mi South 6.9 mph - N/A   Partly Cloudy
6:47 PM 75.2 °F - 30.2 °F 19% 30.19 in 10.0 mi SW 10.4 mph - N/A   Partly Cloudy
7:47 PM 73.4 °F - 30.2 °F 20% 30.19 in 10.0 mi WSW 8.1 mph - N/A   Partly Cloudy
8:47 PM 66.2 °F - 30.2 °F 26% 30.19 in 10.0 mi West 6.9 mph - N/A   Clear
9:47 PM 62.6 °F - 30.2 °F 30% 30.19 in 10.0 mi WNW 10.4 mph - N/A   Clear
10:47 PM 60.8 °F - 30.2 °F 31% 30.20 in 10.0 mi WNW 8.1 mph - N/A   Clear
11:15 PM 60.8 °F - 30.2 °F 31% 30.21 in 10.0 mi NW 6.9 mph - N/A   Clear
11:35 PM 57.2 °F - 32.0 °F 38% 30.20 in 10.0 mi NNW 6.9 mph - N/A   Clear
11:55 PM 59.0 °F - 30.2 °F 34% 30.20 in 10.0 mi WNW 8.1 mph - N/A   Clear